This demonstration page uses our WeatherBlox Daily Observations layout. Learn more.

Left ArrowRight Arrow

31.84235, -102.49876

Hourly Observations for March 26, 2017

Temp ( °F °C ) Dew Point ( °F °C ) Humidity (%) Winds ( mph kmh ) Pressure ( in mb ) Visibility ( mi km ) Precip ( " mm )
12:53 am 00:53 Clear 65 18.3 25 -3.9 22 22 S 15 24 29.73 1007 10 16 0.00 0.00
1:53 am 01:53 Clear 63 17.2 26 -3.3 25 25 S 10 17 29.72 1007 10 16 0.00 0.00
2:53 am 02:53 Clear 64 17.8 27 -2.8 25 25 S 15 24 29.71 1006 10 16 0.00 0.00
3:53 am 03:53 Clear 64 17.8 31 -0.6 29 29 S 14 22 29.68 1005 10 16 0.00 0.00
4:53 am 04:53 Clear 60 15.6 34 1.1 38 38 SW 9 15 29.69 1006 10 16 0.00 0.00
5:53 am 05:53 Clear 63 17.2 37 2.8 38 38 S 18 30 29.66 1004 10 16 0.00 0.00
6:53 am 06:53 Clear 61 16.1 37 2.8 41 41 SSW 12 19 29.68 1005 10 16 0.00 0.00
7:53 am 07:53 Sunny 59 15 38 3.3 46 46 SSW 10 17 29.71 1006 10 16 0.00 0.00
8:24 am 08:24 Mostly Sunny 59 15 39 3.9 48 48 SSW 7 11 29.77 1008 10 16 0.00 0.00
8:53 am 08:53 Sunny 61 16.1 38 3.3 43 43 SSW 7 11 29.73 1007 10 16 0.00 0.00
9:53 am 09:53 Sunny 66 18.9 35 1.7 32 32 W 7 11 29.75 1008 10 16 0.00 0.00
10:28 am 10:28 Mostly Sunny 66 18.9 33 0.6 29 29 NW 9 15 29.77 1008 10 16 0.00 0.00
10:50 am 10:50 Mostly Cloudy 68 20 30 -1 24 24 NW 9 15 29.77 1008 10 16 0.00 0.00
10:53 am 10:53 Mostly Cloudy 68 20 30 -1.1 24 24 NNW 8 13 29.77 1008 10 16 0.00 0.00
11:06 am 11:06 Partly Cloudy 69 20.6 30 -1.1 23 23 N 8 13 29.74 1007 10 16 0.00 0.00
11:53 am 11:53 undefined 70 21.1 28 -2.2 21 21 undefined N/A 29.79 1009 N/A 0.00 0.00
12:53 pm 12:53 Sunny 71 21.7 27 -2.8 19 19 NNW 6 9 29.78 1009 10 16 0.00 0.00
1:19 pm 13:19 Mostly Sunny 74 23.3 27 -2.8 17 17 WSW 8 13 29.71 1006 10 16 0.00 0.00
1:53 pm 13:53 Sunny 76 24.4 27 -2.8 16 16 SW 9 15 29.75 1008 10 16 0.00 0.00
2:53 pm 14:53 undefined N/A N/A N/A undefined N/A N/A N/A 0.00 0.00
3:53 pm 15:53 Sunny 82 27.8 23 -5 11 11 W 29 46 29.67 1005 10 16 0.00 0.00
4:53 pm 16:53 undefined 82 27.8 24 -4.4 12 12 undefined N/A 29.68 1005 N/A 0.00 0.00
5:53 pm 17:53 undefined 81 27 N/A N/A undefined N/A 29.67 1005 N/A 0.00 0.00
6:53 pm 18:53 undefined 80 26.7 21 -6.1 11 11 undefined N/A 29.69 1005 N/A 0.00 0.00
7:53 pm 19:53 undefined N/A N/A N/A undefined N/A N/A N/A 0.00 0.00
8:53 pm 20:53 Clear 71 21.7 20 -6.7 14 14 W 9 15 29.74 1007 10 16 0.00 0.00
9:53 pm 21:53 Clear 68 20 19 -7.2 15 15 W 10 17 29.76 1008 10 16 0.00 0.00
10:53 pm 22:53 Clear 64 17.8 19 -7.2 18 18 W 7 11 29.78 1009 10 16 0.00 0.00
11:53 pm 23:53 Clear 61 16.1 20 -6.7 20 20 W 8 13 29.79 1009 10 16 0.00 0.00

Powered by AerisWeather